This is the latest recevied weather packets stored in our database for station/object E22ZMG-2. If no packets are shown the sender has not sent any weather packets the latest 10 day(s).
| Time | Temp. | Humidity | Pressure | Rain* | Wind** | Luminosity | Snow |
|---|---|---|---|---|---|---|---|
| 1777796968 | 33.89° C | 39% | 923 hPa | - | - | 0 W/m² | - |
| 1777796344 | 33.89° C | 39% | 924 hPa | - | - | 0 W/m² | - |
| 1777795720 | 33.33° C | 41% | 924 hPa | - | - | 0 W/m² | - |
| 1777795096 | 33.33° C | 40% | 924 hPa | - | - | 0 W/m² | - |
| 1777794471 | 33.89° C | 40% | 924 hPa | - | - | 0 W/m² | - |
| 1777793847 | 33.89° C | 40% | 924 hPa | - | - | 0 W/m² | - |
| 1777793223 | 33.33° C | 40% | 924 hPa | - | - | 0 W/m² | - |
| 1777792599 | 34.44° C | 40% | 924 hPa | - | - | 0 W/m² | - |
| 1777791975 | 34.44° C | 40% | 924 hPa | - | - | 0 W/m² | - |
| 1777791351 | 33.89° C | 40% | 925 hPa | - | - | 0 W/m² | - |
| 1777790727 | 33.33° C | 41% | 925 hPa | - | - | 0 W/m² | - |
| 1777790103 | 33.33° C | 41% | 925 hPa | - | - | 0 W/m² | - |
| 1777789479 | 32.78° C | 42% | 925 hPa | - | - | 0 W/m² | - |
| 1777788855 | 33.33° C | 42% | 925 hPa | - | - | 0 W/m² | - |
| 1777788231 | 33.33° C | 41% | 925 hPa | - | - | 0 W/m² | - |
| 1777787607 | 32.78° C | 37% | 926 hPa | - | - | 0 W/m² | - |
| 1777786983 | 33.33° C | 37% | 926 hPa | - | - | 0 W/m² | - |
| 1777786359 | 33.33° C | 37% | 926 hPa | - | - | 0 W/m² | - |
| 1777785734 | 32.78° C | 38% | 926 hPa | - | - | 0 W/m² | - |
| 1777785109 | 33.33° C | 37% | 926 hPa | - | - | 0 W/m² | - |
| 1777784485 | 33.33° C | 36% | 927 hPa | - | - | 0 W/m² | - |
| 1777783861 | 32.78° C | 39% | 927 hPa | - | - | 0 W/m² | - |
| 1777783237 | 32.78° C | 40% | 927 hPa | - | - | 0 W/m² | - |
| 1777782613 | 32.78° C | 40% | 927 hPa | - | - | 0 W/m² | - |
| 1777781989 | 32.22° C | 40% | 927 hPa | - | - | 0 W/m² | - |
* Rain since midnight (hover to see other rain measurements)
** Current wind speed in m/s (hover to see current wind gust speed)